Regional Weather Roundup
Issued by NWS

Home | Current Version | Previous Version | Text Only | Print | Product List | Glossary On
Versions: 1 2 3 4 5 6 7 8 9 10 11 12 13 14 15 16 17 18 19 20 21 22 23 24 25 26 27 28 29 30 31 32 33 34 35 36 37 38 39 40 41 42 43 44 45 46 47 48 49 50
000
ASUS43 KMKX 031100
RWRWI

WISCONSIN REGIONAL WEATHER ROUNDUP
NATIONAL WEATHER SERVICE MILWAUKEE/SULLIVAN WI
600 AM CDT SUN MAY 03 2015

NOTE: "FAIR" INDICATES FEW OR NO CLOUDS BELOW 12,000 FEET WITH NO
SIGNIFICANT WEATHER AND/OR OBSTRUCTIONS TO VISIBILITY.

WIZ001-002-006>008-014>016-023>028-031200-
NORTHWEST WISCONSIN

CITY           SKY/WX    TMP DP  RH WIND       PRES   REMARKS
SUPERIOR ARPT  CLOUDY    48  44  88 SW3       29.68F
ASHLAND        MOCLDY    62  52  69 SW13G21   29.75R
HAYWARD        CLOUDY    59  49  69 SW7       29.80R
SIREN          MOCLDY    58  50  74 CALM      29.79R
CUMBERLAND     CLEAR     54  46  76 CALM      29.79S
RICE LAKE      CLEAR     55  47  75 S3        29.81S
CHETEK         CLEAR     54  48  82 SE3       29.80S
LADYSMITH      CLEAR     53  48  81 E3        29.83R
EAU CLAIRE     NOT AVBL
MENOMONIE      CLEAR     59  49  69 S8        29.80S
NEW RICHMOND   PTCLDY    51  48  87 CALM      29.80S
OSCEOLA        PTCLDY    56  50  78 S8        29.80F
$$

WIZ003>005-009-010-017-018-031200-
NORTH CENTRAL WISCONSIN

CITY           SKY/WX    TMP DP  RH WIND       PRES   REMARKS
MANITOWISH WTR PTCLDY    56  49  79 SW8       29.80S
ARBOR VITAE    FAIR      55  49  81 S6        29.81S
WOODRUFF       FAIR      55  49  81 S6        29.81S
RHINELANDER    CLEAR     55  48  77 S8        29.83F
EAGLE RIVER    CLEAR     55  46  72 SW5       29.82R
LAND O LAKES   CLEAR     56  48  75 S5        29.82R
PHILLIPS       MOCLDY    55  49  78 SW6       29.80S
TOMAHAWK       CLEAR     51  47  86 CALM      29.84R
MEDFORD        CLEAR     55  49  80 S10       29.82F
MERRILL        CLEAR     55  49  82 S3        29.83F
$$

WIZ029-030-035-036-043>047-031200-
CENTRAL WISCONSIN

CITY           SKY/WX    TMP DP  RH WIND       PRES   REMARKS
WAUSAU         CLEAR     56  49  77 S8        29.83S
MOSINEE        CLEAR     52  48  87 S8        29.86F
MARSHFIELD     CLEAR     51  47  86 S6        29.84S
STEVENS POINT  CLEAR     50  46  83 CALM      29.86F
WAUPACA        PTCLDY    54  47  77 CALM      29.88S
WAUTOMA        NOT AVBL
WISC RAPIDS    CLEAR     54  47  77 S7        29.86F
CAMP DOUGLAS   NOT AVBL
$$

WIZ011>013-019>022-031-037>040-048>050-031200-
NORTHEAST WISCONSIN

CITY           SKY/WX    TMP DP  RH WIND       PRES   REMARKS
ANTIGO         CLEAR     48  45  90 SW5       29.85F
SHAWANO        CLEAR     56  46  67 CALM      29.87S
OCONTO         CLEAR     53  45  74 SW5       29.86S
STURGEON BAY   CLEAR     55  45  67 SW7       29.89S
GREEN BAY      CLEAR     56  46  69 S3        29.88S
MANITOWOC      NOT AVBL
APPLETON       MOCLDY    54  45  71 VRB5      29.89S
CLINTONVILLE   CLEAR     52  43  71 S3        29.87S
OSHKOSH        MOCLDY    54  47  77 S10       29.89S
$$

WIZ032>034-041-042-053>061-031200-
SOUTHWEST WISCONSIN

CITY           SKY/WX    TMP DP  RH WIND       PRES   REMARKS
LA CROSSE      PTCLDY    62  51  67 S14       29.81F
SPARTA         CLEAR     55  47  74 CALM      29.85F
VIROQUA        PTCLDY    57  49  75 S9        29.86S
BOSCOBEL       MOCLDY    61  49  64 SW3       29.86F
PRAIRIE DU CHI CLOUDY    60  46  60 E6        29.85F
PLATTEVILLE    CLOUDY    60  50  69 S14       29.89F
$$

WIZ056-057-062-063-064-067-068-031200-
SOUTH CENTRAL WISCONSIN

CITY           SKY/WX    TMP DP  RH WIND       PRES   REMARKS
REEDSBURG      CLOUDY    59  49  69 S12       29.88S
BARABOO/DELLS  NOT AVBL
LONE ROCK      NOT AVBL
MINERAL POINT  CLOUDY    57  50  77 S12       29.90F
MADISON        MOCLDY    59  48  67 S8        29.91S
MIDDLETON      PTCLDY    59  46  61 SW3       29.91S
WATERTOWN      PTCLDY    56  48  75 S5        29.91S
MONROE         PTCLDY    55  46  71 S10       29.92S
JANESVILLE     MOCLDY    61  46  59 S7        29.93S
$$

WIZ051-052-058>065-066-070>072-031200-
SOUTHEAST WISCONSIN

CITY           SKY/WX    TMP DP  RH WIND       PRES   REMARKS
MILWAUKEE      MOCLDY    59  40  49 SW9       29.94S
WAUKESHA       MOCLDY    55  43  62 S5        29.95S
MILWAUKEE/TIMM CLOUDY    59  43  55 S5        29.95R
RACINE         PTCLDY    60  41  49 SW8       29.96F
BURLINGTON     MOCLDY    53  41  64 S3        29.95S
KENOSHA        MOCLDY    58  43  57 SW7       29.95F
FOND DU LAC    CLOUDY    57  47  69 S8        29.90F
SHEBOYGAN      CLEAR     51  44  77 S6        29.91S
WEST BEND      MOCLDY    55  45  67 S3        29.92S
JUNEAU         PTCLDY    53  46  77 SE6       29.92S
$$

LSZ147-162-031200-
LAKE SUPERIOR

STATION/POSITION TIME  TEMP    WIND        PRES    WAVE
                       AIR SEA DIR/SP/G            HT/PER
                 (UTC) (F)     (DEG/KT/KT) (MB)    (FT/S)
W MID LAKE BUOY  0950   45 35  190/ 14/ 16 1005.6S   1/ 3
DEVILS ISLAND    1000          240/  8/  8 1006.1R
PORT WING        1030          200/ 13/ 25 1005.8S
SAXON HARBOR     1000   65     190/  9/ 17 1006.1
$$

LMZ867-665-643>646-031200-
LAKE MICHIGAN

STATION/POSITION TIME  TEMP    WIND        PRES    WAVE
                       AIR SEA DIR/SP/G            HT/PER
                 (UTC) (F)     (DEG/KT/KT) (MB)    (FT/S)
CHAMBERS ISLAND  1000   57     170/  8/ 13 1010.8F
NORTHPORT PIER   1000   51     150/  4/  6 1010.8S
SISTER BAY       0902   64     220/ 13/ 16   N/A
KEWAUNEE LAKESHO 1000   59     230/  6/ 10 1011.1F
SHEBOYGAN LAKESH 1000   56     190/  7/  7 1013.2R
PORT WASHINGTON  1000   52     180/  2/  4 1013.9
ATWATER BUOY     1000   51     160/  6/  8 1015.0R
MILWAUKEE LAKESH 1000   62     240/  8/  9   N/A
KENOSHA   LAKESH 1000   59     180/  6/  6 1014.2S
$$

TC  - TEMPERATURE IN CELSIUS
VSB - VISIBILITY IN STATUTE MILES
WCI - WIND CHILL INDEX
HX  - HEAT INDEX



USA.gov is the U.S. government's official web portal to all federal, state and local government web resources and services.